Colorado Springs, CO

12:19 PM MDT on May 25, 2017 (GMT -0600)
City Of Colorado Springs Municipal

Weather History for KCOS - June, 2013

Change the Weather History Date:

Friday, June 28, 2013

  Actual Average Record
Temperature  
Mean Temperature 78 °F 69 °F  
Max Temperature 94 °F 83 °F 98 °F (1963)
Min Temperature 62 °F 55 °F 42 °F (1985)
Degree Days  
Heating Degree Days 0 1  
Month to date heating degree days 25 76  
Since 1 June heating degree days 25 76  
Since 1 July heating degree days 6128 6289  
Cooling Degree Days 13 5  
Month to date cooling degree days 176 72  
Year to date cooling degree days 198 82  
Since 1 June cooling degree days 176 72  
Growing Degree Days 28 (Base 50)    
Moisture  
Dew Point 47 °F    
Average Humidity 41    
Maximum Humidity 67    
Minimum Humidity 15    
Precipitation  
Precipitation 0.15 in 0.07 in 1.62 in (1995)
Month to date precipitation 0.48 2.35  
Year to date precipitation 3.21 7.46  
Snow  
Snow 0.00 in 0.00 in 0.00 in (2015)
Month to date snowfall 0.0 0.0  
Since 1 June snowfall 0.0 0.0  
Since 1 July snowfall 29.6 37.7  
Snow Depth 0.00 in    
Sea Level Pressure  
Sea Level Pressure 30.14 in    
Wind  
Wind Speed 9 mph (South)    
Max Wind Speed 33 mph    
Max Gust Speed 41 mph    
Visibility 10 miles    
Events Rain , Thunderstorm    
T = Trace of Precipitation, MM = Missing Value Source: NWS Daily Summary

Daily Weather History Graph

Daily Weather History Graph

Search for Another Location

Airport or City:

Trip Planner

Search our weather history database for the weather conditions in past years. The results will help you decide how hot, cold, wet, or windy it might be!

Date:

Astronomy

Jun. 28, 2013 Rise Set
Actual Time 5:36 AM MDT 8:27 PM MDT
Civil Twilight 5:04 AM MDT 8:59 PM MDT
Nautical Twilight 4:24 AM MDT 9:40 PM MDT
Astronomical Twilight 3:38 AM MDT 10:26 PM MDT
Moon No Moon Rise 11:42 AM MDT (6/28)
Length of Visible Light 15h 55m
Length of Day
14h 51m
Waning Gibbous, 65% of the Moon is Illuminated
Jun 28
Waning Gibbous
Jun 29
Last Quarter
Jul 8
New
Jul 15
First Quarter
Jul 22
Full

Hourly Weather History & Observations

Time (MDT) Temp. Dew Point Humidity Pressure Visibility Wind Dir Wind Speed Gust Speed Precip Events Conditions
12:18 AM 75.2 °F 46.4 °F 36% 30.47 in 10.0 mi ESE 3.5 mph - N/A Thunderstorm Thunderstorm
12:50 AM 73.4 °F 51.8 °F 47% 30.41 in 10.0 mi SSE 29.9 mph 40.3 mph 0.00 in Rain , Thunderstorm Light Thunderstorms and Rain
12:54 AM 71.1 °F 53.1 °F 53% 30.09 in 10.0 mi SSE 24.2 mph 40.3 mph 0.00 in Rain , Thunderstorm Light Thunderstorms and Rain
1:54 AM 69.1 °F 53.1 °F 57% 30.11 in 10.0 mi South 8.1 mph - 0.00 in Thunderstorm Thunderstorm
2:04 AM 69.8 °F 51.8 °F 53% 30.42 in 10.0 mi SSW 8.1 mph - N/A   Mostly Cloudy
2:54 AM 70.0 °F 52.0 °F 53% 30.07 in 10.0 mi South 4.6 mph - N/A   Scattered Clouds
3:54 AM 66.0 °F 51.1 °F 59% 30.07 in 10.0 mi East 3.5 mph - N/A   Scattered Clouds
4:54 AM 66.0 °F 51.1 °F 59% 30.05 in 10.0 mi ENE 9.2 mph - N/A   Scattered Clouds
5:54 AM 64.9 °F 53.1 °F 65% 30.07 in 10.0 mi WNW 3.5 mph - N/A   Scattered Clouds
6:54 AM 69.1 °F 53.1 °F 57% 30.08 in 10.0 mi Calm Calm - N/A   Partly Cloudy
7:54 AM 72.0 °F 53.1 °F 51% 30.08 in 10.0 mi Variable 3.5 mph - N/A   Partly Cloudy
8:54 AM 75.9 °F 50.0 °F 40% 30.08 in 10.0 mi SE 6.9 mph - N/A   Scattered Clouds
9:54 AM 79.0 °F 50.0 °F 36% 30.07 in 10.0 mi SSE 6.9 mph - N/A   Scattered Clouds
10:54 AM 84.9 °F 46.0 °F 26% 30.04 in 10.0 mi SSE 16.1 mph - N/A   Scattered Clouds
11:54 AM 89.1 °F 43.0 °F 20% 30.01 in 10.0 mi SSE 21.9 mph 27.6 mph N/A   Scattered Clouds
12:54 PM 88.0 °F 39.0 °F 18% 30.00 in 10.0 mi South 12.7 mph 24.2 mph N/A   Scattered Clouds
1:54 PM 93.0 °F 39.0 °F 15% 29.96 in 10.0 mi South 13.8 mph - N/A   Mostly Cloudy
2:54 PM 89.1 °F 37.0 °F 16% 29.96 in 10.0 mi South 9.2 mph - N/A   Mostly Cloudy
3:01 PM 89.6 °F 35.6 °F 15% 30.28 in 10.0 mi South 9.2 mph - N/A Thunderstorm Thunderstorm
3:13 PM 89.6 °F 37.4 °F 16% 30.28 in 10.0 mi SSW 10.4 mph - 0.00 in Rain , Thunderstorm Light Thunderstorms and Rain
3:15 PM 87.8 °F 37.4 °F 17% 30.28 in 10.0 mi SSW 9.2 mph - 0.00 in Rain , Thunderstorm Light Thunderstorms and Rain
3:29 PM 82.4 °F 42.8 °F 25% 30.30 in 7.0 mi West 20.7 mph 28.8 mph 0.00 in Rain , Thunderstorm Light Thunderstorms and Rain
3:30 PM 80.6 °F 44.6 °F 28% 30.30 in 10.0 mi West 21.9 mph 28.8 mph 0.01 in Rain , Thunderstorm Thunderstorms and Rain
3:42 PM 75.2 °F 48.2 °F 38% 30.30 in 10.0 mi West 16.1 mph - 0.08 in Rain , Thunderstorm Light Thunderstorms and Rain
3:54 PM 78.1 °F 52.0 °F 40% 30.02 in 10.0 mi WSW 9.2 mph - 0.08 in Rain Light Rain
4:54 PM 87.1 °F 44.1 °F 22% 29.95 in 10.0 mi SSW 9.2 mph - 0.00 in   Mostly Cloudy
5:54 PM 86.0 °F 41.0 °F 20% 29.95 in 10.0 mi South 8.1 mph - N/A   Mostly Cloudy
6:54 PM 84.9 °F 42.1 °F 22% 29.94 in 10.0 mi Calm Calm - N/A   Mostly Cloudy
7:39 PM 82.4 °F 41.0 °F 23% 30.24 in 10.0 mi Calm Calm - N/A Thunderstorm Thunderstorm
7:54 PM 84.0 °F 42.1 °F 23% 29.94 in 10.0 mi SSE 5.8 mph - N/A Thunderstorm Thunderstorm
8:54 PM 81.0 °F 43.0 °F 26% 29.96 in 10.0 mi West 18.4 mph - 0.00 in Rain , Thunderstorm Light Thunderstorms and Rain
9:02 PM 75.2 °F 51.8 °F 44% 30.29 in 10.0 mi WNW 26.5 mph 38.0 mph 0.00 in Rain , Thunderstorm Light Thunderstorms and Rain
9:10 PM 69.8 °F 55.4 °F 60% 30.30 in 7.0 mi WNW 18.4 mph 35.7 mph 0.00 in Rain , Thunderstorm Thunderstorms and Rain
9:38 PM 66.2 °F 51.8 °F 60% 30.34 in 10.0 mi NNE 27.6 mph 41.4 mph 0.05 in Rain , Thunderstorm Light Thunderstorms and Rain
9:54 PM 70.0 °F 50.0 °F 49% 30.06 in 10.0 mi East 20.7 mph 26.5 mph 0.06 in Rain , Thunderstorm Light Thunderstorms and Rain
10:12 PM 69.8 °F 51.8 °F 53% 30.36 in 10.0 mi ESE 8.1 mph - 0.00 in   Mostly Cloudy
10:54 PM 71.1 °F 51.1 °F 49% 30.07 in 10.0 mi SSE 9.2 mph - 0.00 in   Mostly Cloudy
11:54 PM 66.9 °F 54.0 °F 63% 30.11 in 10.0 mi Variable 4.6 mph - N/A   Mostly Cloudy